Regional Weather Roundup
Issued by NWS Charleston, WV

Home | Current Version | Previous Version | Graphics & Text | Print | Product List | Glossary On
Versions: 1 2 3 4 5 6 7 8 9 10 11 12 13 14 15 16 17 18 19 20 21 22 23 24 25 26 27 28 29 30 31 32 33 34 35 36 37 38 39 40 41 42 43 44 45 46 47 48 49 50
000
ASUS41 KRLX 041410
RWRRLX
West Virginia Regional Weather Roundup
National Weather Service Charleston WV
900 AM EST WED MAR 04 2015

Note: "fair" indicates few or no clouds below 12,000 feet with no
significant weather and/or obstructions to visibility.

WVZ003-041500-
Northern Panhandle of West Virginia

CITY           SKY/WX    TMP DP  RH WIND       PRES   REMARKS
WHEELING       LGT RAIN  35  33  92 SW3       29.91F FOG
$$

WVZ009-041500-
Northwest West Virginia

CITY           SKY/WX    TMP DP  RH WIND       PRES   REMARKS
PARKERSBURG    LGT RAIN  38  37  97 N3        29.96F FOG
$$

WVZ006-041500-
Western West Virginia

CITY           SKY/WX    TMP DP  RH WIND       PRES   REMARKS
HUNTINGTON     RAIN      44  44 100 N3        29.92R VSB 1
$$

WVZ015-041500-
West Central West Virginia

CITY           SKY/WX    TMP DP  RH WIND       PRES   REMARKS
CHARLESTON     LGT RAIN  49  47  93 VRB5      29.92F
$$

WVZ022-031-041500-
North Central West Virginia

CITY           SKY/WX    TMP DP  RH WIND       PRES   REMARKS
CLARKSBURG     LGT RAIN  43  42  97 SW3       29.92S FOG
MORGANTOWN     LGT RAIN  42  38  85 SW5       29.93R FOG
$$

WVZ025-035-042-045-041500-
Southern West Virginia

CITY           SKY/WX    TMP DP  RH WIND       PRES   REMARKS
BECKLEY        LGT RAIN  44  44 100 CALM      29.96R VSB 1/2
LOGAN          LGT RAIN  48  48 100 SE3       29.91S VSB 1/2
BLUEFIELD      LGT RAIN  49  45  86 VRB6      29.98R
LEWISBURG      LGT RAIN  41  40  96 CALM      29.97R VSB 1/4
$$

WVZ047-041500-
Northern Mountains of West Virginia

CITY           SKY/WX    TMP DP  RH WIND       PRES   REMARKS
ELKINS         CLOUDY    45  32  60 SE3       29.93F
$$

WVZ052-041500-
Eastern Panhandle of West Virginia

CITY           SKY/WX    TMP DP  RH WIND       PRES   REMARKS
MARTINSBURG    CLOUDY    39  35  86 CALM      29.91S FOG
PETERSBURG     PTSUNNY   55  40  56 W10         N/A
$$


USA.gov is the U.S. government's official web portal to all federal, state and local government web resources and services.